This demonstration page uses our WeatherBlox Daily Observations layout. Learn more.

Left ArrowRight Arrow

38.20091, -84.87328

Hourly Observations for July 11, 2019

Temp ( °F °C ) Dew Point ( °F °C ) Humidity (%) Winds ( mph kmh ) Pressure ( in mb ) Visibility ( mi km ) Precip ( " mm )
12:53 am 00:53 Clear 78 25.6 74 23.3 87 87 Calm 29.90 1013 9 14 0.00 0.00
1:53 am 01:53 Mostly Clear 79 26.1 74 23.3 85 85 Calm 29.89 1012 9 14 0.00 0.00
2:53 am 02:53 Mostly Cloudy 78 25.6 74 23.3 87 87 SSW 5 7 29.89 1012 10 16 0.00 0.00
3:53 am 03:53 Clear 77 25 74 23.3 90 90 SW 5 7 29.88 1012 8 13 0.00 0.00
4:53 am 04:53 Clear 76 24.4 73 22.8 91 91 SSW 3 6 29.88 1012 8 13 0.00 0.00
5:53 am 05:53 Mostly Clear 77 25 74 23.3 90 90 WSW 3 6 29.87 1012 8 13 0.00 0.00
6:53 am 06:53 Sunny with Mist and Fog 77 25 74 23.3 90 90 WSW 5 7 29.86 1011 6 10 0.00 0.00
7:53 am 07:53 Sunny 78 25.6 75 23.9 90 90 S 12 19 29.88 1012 7 11 0.00 0.00
8:19 am 08:19 Mostly Cloudy 78 25.6 75 23.9 90 90 WSW 6 9 29.89 1012 7 11 0.00 0.00
8:28 am 08:28 Cloudy with Mist and Fog 78 25.6 75 23.9 90 90 W 5 7 29.90 1012 6 10 0.00 0.00
8:43 am 08:43 Mostly Cloudy 78 25.6 74 23.3 87 87 SW 8 13 29.89 1012 7 11 0.00 0.00
8:53 am 08:53 Mostly Cloudy 79 26.1 75 23.9 88 88 SW 8 13 29.89 1012 7 11 0.00 0.00
9:00 am 09:00 Mostly Sunny 80 26.7 75 23.9 85 85 WSW 7 11 29.88 1012 8 13 0.00 0.00
9:17 am 09:17 Mostly Sunny 80 26.7 75 23.9 85 85 WSW 8 13 29.88 1012 9 14 0.00 0.00
9:53 am 09:53 Mostly Cloudy 82 27.8 75 23.9 79 79 SSW 6 9 29.89 1012 9 14 0.00 0.00
10:53 am 10:53 Partly Cloudy 85 29.4 75 23.9 72 72 S 7 11 29.87 1012 10 16 0.00 0.00
11:32 am 11:32 Mostly Cloudy 85 29.4 73 22.8 68 68 VRB 6 9 29.86 1011 10 16 0.00 0.00
11:42 am 11:42 Mostly Cloudy 86 30 73 22.8 65 65 W 8 13 29.85 1011 10 16 0.00 0.00
11:53 am 11:53 Mostly Cloudy 86 30 73 22.8 65 65 VRB 6 9 29.87 1012 10 16 0.00 0.00
12:53 pm 12:53 Mostly Sunny 89 31.7 74 23.3 61 61 WNW 6 9 29.87 1011 10 16 0.00 0.00
1:53 pm 13:53 Partly Cloudy 89 31.7 73 22.8 59 59 VRB 7 11 29.84 1011 10 16 0.00 0.00
2:05 pm 14:05 Partly Cloudy with Nearby Thunderstorms 89 31.7 75 23.9 63 63 WSW 7 11 29.82 1010 10 16 0.00 0.00
2:28 pm 14:28 Cloudy 87 30.6 74 23.3 65 65 WNW 7 11 29.81 1010 10 16 0.00 0.00
2:46 pm 14:46 Cloudy with Nearby Thunderstorms 85 29.4 74 23.3 70 70 NW 8 13 29.82 1010 10 16 0.00 0.00
2:53 pm 14:53 Mostly Cloudy with Nearby Thunderstorms 85 29.4 74 23.3 70 70 WNW 7 11 29.83 1010 10 16 0.00 0.00
3:07 pm 15:07 Cloudy with Strong Thunderstorms 76 24.4 69 20.6 79 79 SW 18 30 29.84 1010 3 5 0.04 1.02
3:16 pm 15:16 Cloudy with Light Rain 77 25 71 21.7 82 82 W 6 9 29.83 1010 6 10 0.05 1.27
3:53 pm 15:53 Sunny 84 28.9 71 21.7 65 65 WSW 5 7 29.83 1010 10 16 0.05 1.27
4:53 pm 16:53 Partly Cloudy 88 31.1 73 22.8 61 61 W 6 9 29.80 1009 10 16 0.00 0.00
5:53 pm 17:53 Partly Cloudy 89 31.7 69 20.6 52 52 WNW 9 15 29.80 1009 10 16 0.00 0.00
6:53 pm 18:53 Sunny 88 31.1 68 20 52 52 NW 12 19 29.81 1010 10 16 0.00 0.00
7:53 pm 19:53 Partly Cloudy 86 30 68 20 55 55 NNW 7 11 29.84 1010 10 16 0.00 0.00
8:53 pm 20:53 Sunny 82 27.8 67 19.4 60 60 NW 5 7 29.85 1011 10 16 0.00 0.00
9:53 pm 21:53 Clear 79 26.1 67 19.4 67 67 WNW 3 6 29.85 1011 10 16 0.00 0.00
10:53 pm 22:53 Clear 75 23.9 68 20 79 79 NW 3 6 29.86 1011 10 16 0.00 0.00
11:53 pm 23:53 Clear 74 23.3 67 19.4 79 79 Calm 29.86 1011 10 16 0.00 0.00

Powered by AerisWeather